www.pogodaiklimat.ru

Погода и климат >> Архив погоды >> Индонезия >> Лонгбаван


ПОГОДА в Лонгбаване

  • Прогноз погоды в Лонгбаване
  • Монитор погоды в Лонгбаване

АРХИВ ПОГОДЫ в Лонгбаване

Время (UTC), дата Ветер
(напр.,м/с)
 
Видим.   Явления Облачность Т
(С)
Тd
(С)
f
(%)
Тe
(С)
Тes
(С)
Комфортность P
(гПа)
Po
(гПа)
Тmin
(С)
Tmax
(С)
R
(мм)
R24
(мм)
S
(см)
00 14.09 штиль 0 100 м туман ?/? +17.9 +17.6 98 +18 +18 1018.7 909.1 +16.9
03 14.09 ЮВ 3 3000 м дым {туман} 5/4 450 м
[Cu hum Ac trans Ci fib]
+27.4 +17.7 55 +32 +41 очень
душно
1017.4 907.9
06 14.09 С 5 4000 м дым {туман} 5/3 480 м
[Cu hum Ac trans Ci fib]
+30.5 +14.1 37 +32 +38 жарко 1015.0 905.8
09 14.09 ЮЗ 4 4000 м дым 5/3 480 м
[Cu hum Ac trans Ci fib]
+28.1 +16.0 48 +31 +32 душно 1015.4 906.1
00 15.09 штиль 0 300 м туман ?/? +15.8 +15.6 99 +16 +16 1019.2 909.5 +14.6
03 15.09 штиль 0 3000 м дым 8/4 330 м
[Sc As trans Ci fib]
+21.1 +17.8 81 +25 +36 комфорт 1018.1 908.6
06 15.09 штиль 0 2000 м дым 8/4 400 м
[Sc diur, vesp As trans Ci fib]
+26.3 +19.6 67 +32 +42 очень
душно
1015.1 905.9
09 15.09 штиль 0 2000 м дым 6/4 400 м
[Sc diur, vesp Ac trans Ci fib]
+24.7 +18.5 68 +29 +31 душно 1015.0 905.7
00 16.09 штиль 0 100 м туман 10/10 90 м
[St]
+14.0 +13.9 99 +14 +14 1019.3 909.7 +11.6
03 16.09 штиль 0 5000 м мгла 6/4 300 м
[Sc Ac trans Ci fib]
+24.2 +12.1 47 +26 +39 жарко 1017.8 908.3
06 16.09 штиль 0 5000 м дым 3/0
[Ci sp]
+30.4 +13.1 35 +32 +54 опасность
солнечного
удара
1014.0 904.9
09 16.09 З 3 5000 м дым 3/0
[Ci fib]
+28.2 +16.4 49 +32 +34 душно 1014.0 904.9
00 17.09 штиль 0 100 м туман ?/? +13.7 +13.4 98 +13 +13 1019.0 909.4 +12.1
03 17.09 ЮЗ 3 3000 м дым 4/0
[Ac trans Ci fib]
+25.8 +14.5 50 +28 +44 жарко 1017.8 908.3
06 17.09 СЗ 2 3000 м дым {туман} 5/1 400 м
[Cu hum Ac trans Ci fib]
+29.0 +14.7 42 +31 +44 жарко 1014.8 905.6
09 17.09 З 3 3000 м дым {туман} 5/1 360 м
[Cu hum Ac trans Ci fib]
+26.4 +16.0 53 +30 +31 душно 1015.0 905.8
00 18.09 штиль 0 200 м туман ?/? +16.9 +16.2 96 +17 +17 1019.8 910.1 +13.5 0.3
03 18.09 ЮЗ 2 3000 м дым 5/1 400 м
[Cu hum Ac trans Ci fib]
+25.7 +19.7 69 +31 +45 очень
душно
1018.1 908.6
06 18.09 В 3 3000 м дым 3/3 420 м
[Cu hum Ci fib]
+31.5 +19.4 49 +37 +49 очень
душно
1014.5 905.3
09 18.09 З 2 3000 м дым 3/0 420 м
[Cu hum Ci fib]
+28.8 +19.0 55 +34 +36 очень
душно
1014.3 905.1
00 19.09 штиль 0 100 м местами туман поземный ?/? +20.0 +19.6 98 +23 +23 комфорт 1020.6 910.8 +15.8
03 19.09 штиль 0 1000 м дым 8/5 300 м
[Sc diur, vesp Ac trans Ci fib]
+27.5 +19.2 61 +33 +42 очень
душно
1018.8 909.1
06 19.09 Ю 2 2000 м дым 5/3 500 м
[Cu med, cong Ac trans Ci fib]
+30.9 +15.2 39 +33 +44 душно 1015.5 906.3
09 19.09 З 4 2000 м дым 9/5 450 м
[Cu med, cong Ac trans Ci fib]
+27.6 +19.3 61 +33 +34 очень
душно
1015.1 905.9
00 20.09 штиль 0 600 м дым {туман} ?/? +21.3 +19.8 91 +26 +26 душно 1019.0 909.3 +19.4 6
03 20.09 В 3 3000 м дым 6/5 450 м
[Cu med, cong Ci fib]
+27.4 +18.6 59 +32 +40 очень
душно
1017.6 908.1
06 20.09 Ю 2 4000 м дым 6/5 480 м
[Cu hum Ci fib]
+30.9 +17.1 44 +35 +44 очень
душно
1014.1 904.9
09 20.09 Ю 6 3000 м гроза, ливневой дождь 9/8 400 м
[Cb calv Ac As Ci fib]
+21.5 +20.0 91 +27 +27 душно 1015.4 906.1 5

 

Местоположение метеостанции Лонгбаван (Индонезия): широта 3.73 долгота 115.68 высота над уровнем моря 550 м.

В архиве по умолчанию представлена погода в Лонгбаване за последнюю неделю. Архивные данные за месяц целиком и за предыдущие месяцы, начиная с января 2011 года, Вы можете получить, выбрав интересующий диапазон дат из раскрывающегося списка и нажав кнопку "Ввод!".


*Определитесь, кто Вы:
робот инопланетянин человек

Внимание! Время в таблицах - всемирное. Для получения местного времени необходимо прибавить поправку, которая равна 8 ч.

Смотрите также архив погоды в соседних городах и на ближайших метеорологических станциях:

Погода в Брунее (Бруней) (157 км)
Погода в Лабуане (Малайзия) (181 км)
Погода в Мири (Малайзия) (200 км)
Погода в Танджунгселоре (Индонезия) (208 км)
Погода в Таракане (Индонезия) (213 км)
Погода в Кота-Кинабалу (Малайзия) (248 км)
Погода в Тавау (Малайзия) (251 км)
Погода в Танджунгредепе (Индонезия) (266 км)
Погода в Бинталу (Малайзия) (300 км)
Погода в Сандакане (Малайзия) (358 км)

Пояснения к столбцам:

Ветер - указаны скорость ветра в м/с - средняя за 10 мин, порывы в срок и между сроками (в фигурных скобках) и направление, откуда дует ветер: С - северный, СВ - северо-восточный, В - восточный, ЮВ - юго-восточный, Ю - южный, ЮЗ - юго-западный, З - западный, СЗ - северо-западный.
Видимость - горизонтальная дальность видимости в метрах или километрах. При видимости от 1 до 10 км при отсутствии осадков обычно наблюдается дымка, при ухудшении видимости до 1 км и менее - туман. В сухую погоду видимость может ухудшаться дымом, пылью или мглою.
Явления - указаны атмосферные явления, наблюдавшиеся в срок или в последний час перед сроком; фигурными скобками обозначены явления, наблюдавшиеся между сроками (за 1-3 часа до срока); квадратными скобками обозначены град или гололедные отложения с указанием их диаметра в мм.
Облачность - указаны через наклонную черту общая и нижняя облачность в баллах и высота нижней границы облаков в метрах; квадратными скобками обозначены формы облаков: Ci - перистые, Cs - перисто-слоистые, Cc - перисто-кучевые, Ac - высококучевые, As - высокослоистые, Sc - слоисто-кучевые, Ns - слоисто-дождевые, Cu - кучевые, Cb - кучево-дождевые. Подробнее классификацию облаков см. в Атласе облаков (PDF).
T - Температура воздуха - температура, измеренная на высоте 2 м над землей.
Td - Температура точки росы - температура, при понижении до которой содержащийся в воздухе водяной пар достигнет насыщения.
f - Относительная влажность воздуха - влажноcть воздуха, измеренная на высоте 2 м над землей.
Te - Эффективная температура - температура, которую ощущает одетый по сезону человек в тени. Характеристика душности погоды. При расчете учитывается влияние влажности воздуха и скорости ветра на теплоощущения человека.
Tes - Эффективная температура на солнце - температура, которую ощущает человек, с поправкой на солнечный нагрев. Характеристика знойности погоды. Зависит от высоты солнца над горизонтом, облачности и скорости ветра. Ночью, в пасмурную погоду, а также при ветре 12 м/с и более поправка равна нулю.
P - Атмосферное давление - приведенное к уровню моря атмосферное давление.
Po - Атмосферное давление - измеренное на уровне метеостанции атмосферное давление.
Tmin - Минимальная температура - минимум температуры воздуха на высоте 2 м над землей.
Tmax - Максимальная температура - максимум температуры воздуха на высоте 2 м над землей.
R - Количество осадков - Количество выпавших осадков за период времени, мм. При наведении курсора мыши на число - период времени, за который выпало указанное количество осадков.
R24 - Количество осадков - Количество выпавших осадков за 24 часа, мм.
S - Снежный покров - Высота снежного покрова, см. При наведении курсора мыши на число - состояние снежного покрова и степень покрытия местности в баллах.